Location: Jetmore Oil Field
(38.1181°N, 99.9337°W)
Time: 20:04:13
(UTC+00:00)

ISS - Pass Details

Date: 29 June 2021
Orbit: 419 x 421 km, 51.6° (Epoch: 29 July)

Event Time Altitude Azimuth Distance (km) Brightness Sun altitude
Exits shadow 10:00:56 19° 261° (W) 1,059 -2.2 -13.1°
Maximum altitude 10:02:59 43° 325° (NW) 601 -2.9 -12.8°
Drops below altitude 10° 10:06:13 10° 39° (NE) 1,500 0.5 -12.4°
Sets 10:08:23 0° 46° (NE) 2,367 2.2 -12.1°
